[[{"header":{"parameterUnit":"m.s-1","parameterCategory":1,"la1":30.2991,"la2":30.254,"lo1":-89.0895,"lo2":-89.0444,"dy":0.0017,"dx":0.0017,"nx":28,"ny":28,"refTime":"2024-05-08T21:00:00:Z","depth":0,"parameterNumber":2,"parameterNumberName":"U-component_of_WINDS"},"data":[0,0,0,0,0,0,0,0,0,0,0,0,0,0,0,0,0,0,0,0,0,0,0,0,0,0,0,0,0,0,0,0,0,0,0,0,0,0,0,0,0,0,0,0,0,0,0,0,0,0,0,0,0,0,0,0,0,0,1.7995,1.7997,0,1.8157,1.8159,1.8161,1.8158,1.8156,1.8153,1.8151,1.8328,1.8335,1.8341,0,0,0,0,0,0,0,0,0,0,0,0,0,1.7692,1.7698,1.7995,1.7997,1.7999,1.8157,1.8159,1.8161,1.8158,1.8155,1.8153,1.815,1.8326,1.8334,1.8342,0,0,0,0,0,0,0,0,0,0,0,0,0,1.7836,1.77,1.7994,1.8016,1.8019,1.8157,1.8159,1.8162,1.8159,1.8155,1.8152,1.8149,1.8323,1.8333,1.8343,1.8473,0,0,1.8374,1.8379,0,0,0,0,0,0,0,0,1.7828,1.7848,1.8011,1.8015,1.8019,1.8134,1.8117,1.8267,1.816,1.8106,1.8151,1.8147,1.8267,1.8281,1.832,1.8481,1.8488,1.8375,1.8381,1.8386,1.8388,0,0,0,0,0,0,0,1.7818,1.7841,1.8059,1.8013,1.8018,1.8021,1.8038,1.8146,1.8204,1.8111,1.8111,1.8129,1.8268,1.831,1.8324,1.8491,1.8375,1.8384,1.839,1.8394,1.877,1.8774,0,0,0,0,0,0,1.7802,1.7832,1.8054,1.8064,1.7913,1.8029,1.8048,1.81,1.8202,1.8214,1.8132,1.8129,1.8294,1.8312,1.833,1.849,1.8386,1.8395,1.8401,1.8766,1.8771,1.8775,0,0,0,0,0,0,1.7796,1.7822,1.8048,1.7948,1.7977,1.8038,1.8097,1.8105,1.8146,1.8218,1.823,1.8163,1.8292,1.8316,1.8437,1.8496,1.84,1.8409,1.8762,1.8768,1.8773,1.881,0,0,0,0,0,0,1.7787,1.782,1.7867,1.7949,1.7982,1.8149,1.81,1.8111,1.8163,1.816,1.825,1.8262,1.8291,1.8422,1.8447,1.8508,1.8417,1.8757,1.8764,1.8771,1.8804,1.8816,1.8827,0,0,0,0,0,1.7776,1.7872,1.7869,1.7896,1.8042,1.8152,1.8172,1.82,1.8167,1.8217,1.8264,1.8259,1.8485,1.8434,1.8463,1.8528,1.8753,1.8762,1.8771,1.8798,1.8814,1.8827,0,0,0,0,0,0,1.7799,1.7884,1.7881,1.8006,1.8071,1.8151,1.8215,1.8215,1.8294,1.8288,1.8323,1.8344,1.8466,1.8509,1.8451,1.866,1.8616,1.863,1.8627,1.8642,1.8653,1.8641,1.8425,0,0,0,0,0,1.7817,1.7896,1.7968,1.8071,1.8104,1.8154,1.8203,1.8219,1.829,1.8318,1.8374,1.8445,1.8533,1.859,1.8674,1.881,1.8831,1.8869,1.888,1.8889,1.8903,1.898,1.8998,1.8804,1.8804,1.8804,0,0,1.7858,1.7915,1.7963,1.8077,1.813,1.8214,1.8177,1.8268,1.8332,1.8333,1.8451,1.8494,1.8577,1.8706,1.8766,1.8746,1.8961,1.8901,1.8907,1.8916,1.8991,1.9009,1.9026,1.881,1.8809,1.8808,0,0,1.7976,1.8025,1.8118,1.8171,1.825,1.8283,1.8305,1.8385,1.8413,1.8531,1.8534,1.8613,1.8762,1.8821,1.8871,1.9012,1.9013,1.9039,1.9101,1.9176,1.9191,1.9205,1.9258,1.9276,1.9052,1.9052,1.9052,0,1.8018,1.8142,1.8166,1.8257,1.8309,1.8311,1.8407,1.8459,1.8563,1.86,1.8575,1.8763,1.8819,1.8963,1.8998,1.9037,1.9067,1.903,1.9186,1.9201,1.9214,1.9265,1.9284,1.9055,1.9054,1.9054,1.9054,0,1.8191,1.8277,1.8343,1.844,1.8499,1.8592,1.8634,1.8692,1.8703,1.874,1.8862,1.8929,1.9027,1.9062,1.9076,1.921,1.9195,1.9178,1.9135,1.9235,1.9283,1.9303,1.9059,1.9058,1.9057,1.9056,0,0,1.8327,1.8436,1.846,1.8505,1.8594,1.8663,1.8758,1.8851,1.8901,1.8973,1.9056,1.9182,1.9167,1.9223,1.9243,1.9309,1.942,1.9285,1.9287,1.9309,1.9575,1.9589,1.961,1.942,1.9424,1.9427,1.9569,0,1.8456,1.862,1.8645,1.8792,1.8874,1.8877,1.8961,1.9026,1.9063,1.9141,1.9183,1.9272,1.9244,1.9279,1.9344,1.9392,1.9474,1.9382,1.9501,1.9505,1.9481,1.9635,1.965,1.9781,1.9588,1.9591,1.9593,0,1.8627,1.8701,1.8855,1.8933,1.8968,1.9042,1.9131,1.9204,1.9279,1.9302,1.9365,1.9377,1.948,1.943,1.9574,1.9511,1.9561,1.9593,1.9599,1.9612,1.9556,1.9655,1.9823,1.9843,1.9623,1.9621,1.9619,0,1.8714,1.8852,1.8962,1.9,1.9094,1.9146,1.9189,1.926,1.9315,1.9394,1.9431,1.9521,1.9572,1.9644,1.9682,1.9642,1.9824,1.9777,1.9849,1.9848,1.9888,1.9885,2.0068,1.9917,1.9917,1.9917,1.9916,0,1.8855,1.895,1.9002,1.907,1.9177,1.9208,1.9314,1.9356,1.942,1.9499,1.9508,1.9583,1.9628,1.971,1.9741,1.9857,1.9879,1.9903,1.991,1.9903,1.99,1.9937,1.993,1.9922,1.9921,1.992,1.9919,0,1.897,1.9009,1.913,1.9208,1.923,1.9306,1.9375,1.9443,1.9479,1.9579,1.9605,1.9664,1.9761,1.9806,1.9927,1.9948,2.008,2.0081,2.0054,2.0057,2.0126,2.012,2.0341,2.0372,2.0199,2.0201,2.0202,0,1.9059,1.9131,1.9217,1.9269,1.9311,1.9395,1.9451,1.9485,1.9543,1.9635,1.9693,1.979,1.9869,2.0026,2.0082,2.0175,2.0179,2.025,2.0193,2.0184,2.0183,2.0178,2.0187,2.0261,2.0263,2.0264,2.0265,0,1.9212,1.9228,1.9306,1.9391,1.9457,1.9527,1.9595,1.9638,1.9683,1.9749,1.9847,1.9908,2.0031,2.0129,2.0226,2.0274,2.0279,2.0282,2.0304,2.0298,2.028,2.0292,2.0084,2.0277,2.0276,2.0275,2.0274,2.0274,1.9318,1.9383,1.9454,1.9541,1.9596,1.966,1.9728,1.9772,1.9854,1.9954,1.997,2.0075,2.0152,2.0282,2.0333,2.0419,2.0402,2.0433,2.0442,2.0449,2.0454,2.0265,2.0437,2.0436,2.0436,2.0436,2.0436,0,1.9474,1.9519,1.9599,1.9693,1.9763,1.9758,1.9834,1.9894,1.9985,2.0054,2.0131,2.0246,2.0341,2.0404,2.0501,2.0557,2.0562,2.0582,2.0579,2.059,2.0462,2.0434,2.0576,2.0576,2.0576,2.0576,2.0576,2.0576,1.9563,1.9673,1.9698,1.9837,1.9883,1.9983,2.0027,2.0088,2.0143,2.0269,2.0347,2.0386,2.0454,2.0556,2.0644,2.0661,2.0697,2.0718,2.0734,2.0614,2.0599,2.0585,2.0559,2.0725,2.0725,2.0855,2.0856,2.0857]},{"header":{"parameterUnit":"m.s-1","parameterCategory":1,"la1":30.2991,"la2":30.254,"lo1":-89.0895,"lo2":-89.0444,"dy":0.0017,"dx":0.0017,"nx":28,"ny":28,"refTime":"2024-05-08T21:00:00:Z","depth":0,"parameterNumber":3,"parameterNumberName":"V-component_of_WINDS"},"data":[0,0,0,0,0,0,0,0,0,0,0,0,0,0,0,0,0,0,0,0,0,0,0,0,0,0,0,0,0,0,0,0,0,0,0,0,0,0,0,0,0,0,0,0,0,0,0,0,0,0,0,0,0,0,0,0,0,0,0.567,0.5671,0,0.5762,0.5763,0.5764,0.5747,0.5745,0.5744,0.5742,0.5838,0.5842,0.5846,0,0,0,0,0,0,0,0,0,0,0,0,0,0.548,0.5483,0.567,0.5671,0.5672,0.5762,0.5763,0.5764,0.5747,0.5745,0.5743,0.5742,0.5836,0.5841,0.5846,0,0,0,0,0,0,0,0,0,0,0,0,0,0.5566,0.5484,0.567,0.5674,0.5676,0.5761,0.5763,0.5764,0.5748,0.5745,0.5743,0.5741,0.5835,0.5841,0.5847,0.5933,0,0,0.5865,0.5868,0,0,0,0,0,0,0,0,0.5561,0.5573,0.5673,0.5674,0.5676,0.574,0.5731,0.5821,0.5748,0.5721,0.5742,0.5739,0.5807,0.5816,0.5838,0.5938,0.5942,0.5866,0.587,0.5872,0.5874,0,0,0,0,0,0,0,0.5555,0.5569,0.5706,0.5674,0.5676,0.5672,0.5682,0.5748,0.5777,0.5723,0.5722,0.5733,0.5808,0.5832,0.584,0.5943,0.5866,0.5871,0.5875,0.5877,0.6116,0.6118,0,0,0,0,0,0,0.5547,0.5564,0.5703,0.5709,0.5611,0.5677,0.5688,0.5722,0.5776,0.5782,0.5735,0.5732,0.5823,0.5833,0.5844,0.5947,0.5872,0.5878,0.5881,0.6113,0.6116,0.6119,0,0,0,0,0,0,0.5543,0.556,0.57,0.5636,0.5654,0.5683,0.5722,0.5725,0.575,0.5785,0.579,0.5755,0.5822,0.5835,0.5911,0.595,0.5881,0.5886,0.611,0.6114,0.6118,0.6155,0,0,0,0,0,0,0.5538,0.5559,0.5592,0.5637,0.5657,0.5765,0.5724,0.5729,0.576,0.5757,0.5805,0.581,0.5821,0.5902,0.5917,0.5957,0.5891,0.6107,0.6112,0.6117,0.615,0.616,0.6168,0,0,0,0,0,0.5531,0.56,0.5594,0.5611,0.57,0.5767,0.5779,0.5789,0.5764,0.5797,0.5819,0.5809,0.5943,0.5909,0.5926,0.5969,0.6104,0.611,0.6116,0.6146,0.6158,0.6167,0,0,0,0,0,0,0.556,0.5606,0.56,0.5685,0.5722,0.5764,0.5807,0.5801,0.5847,0.5842,0.5853,0.5864,0.594,0.5962,0.5924,0.6054,0.602,0.603,0.6037,0.6048,0.6057,0.605,0.5896,0,0,0,0,0,0.5576,0.5627,0.5665,0.5736,0.5755,0.5778,0.5808,0.5812,0.5851,0.5867,0.5895,0.5934,0.5984,0.6018,0.6067,0.6153,0.6162,0.6191,0.62,0.6207,0.6215,0.626,0.6272,0.6139,0.6139,0.6139,0,0,0.561,0.5641,0.5673,0.5742,0.5772,0.5824,0.5791,0.5849,0.5887,0.5876,0.5948,0.597,0.6014,0.6095,0.6132,0.6115,0.6253,0.6214,0.622,0.6224,0.6267,0.628,0.6291,0.6143,0.6143,0.6142,0,0,0.5698,0.5728,0.5789,0.5819,0.5863,0.5878,0.5892,0.5935,0.5949,0.6021,0.6013,0.6059,0.6147,0.6178,0.6205,0.6302,0.6294,0.6318,0.6363,0.6407,0.6418,0.6427,0.646,0.6472,0.6326,0.6326,0.6326,0,0.5735,0.5813,0.5822,0.5879,0.5909,0.59,0.5962,0.5991,0.6049,0.607,0.6051,0.6158,0.6188,0.6274,0.6298,0.6321,0.6337,0.6312,0.6415,0.6425,0.6434,0.6465,0.6478,0.6329,0.6328,0.6328,0.6328,0,0.5855,0.5909,0.5954,0.6009,0.6044,0.6103,0.612,0.6155,0.6156,0.6172,0.6245,0.6279,0.6333,0.6354,0.6356,0.6441,0.6429,0.6413,0.6378,0.6449,0.6478,0.6491,0.6332,0.6331,0.633,0.633,0,0,0.5964,0.6022,0.6038,0.6062,0.6109,0.6151,0.621,0.6262,0.629,0.6331,0.6379,0.6452,0.6436,0.6467,0.6473,0.6511,0.6584,0.649,0.6491,0.6505,0.6676,0.6687,0.6701,0.6578,0.6581,0.6583,0.6672,0,0.6056,0.6158,0.6167,0.6259,0.6308,0.6299,0.635,0.6384,0.64,0.6444,0.6463,0.6513,0.649,0.6508,0.6546,0.6567,0.6618,0.6561,0.6623,0.6625,0.6611,0.6717,0.673,0.6813,0.6684,0.6686,0.6687,0,0.6176,0.6218,0.6315,0.6353,0.6374,0.6419,0.6467,0.6509,0.6547,0.6556,0.6589,0.6589,0.6648,0.6611,0.6692,0.6653,0.6678,0.6692,0.6696,0.6701,0.666,0.6724,0.684,0.6852,0.6706,0.6705,0.6703,0,0.6244,0.6325,0.6393,0.6414,0.6461,0.6492,0.6513,0.6549,0.6579,0.6621,0.664,0.6688,0.6714,0.6751,0.6763,0.6736,0.6843,0.6808,0.6851,0.6851,0.6874,0.6872,0.6993,0.6892,0.6892,0.6892,0.6891,0,0.6344,0.6403,0.6423,0.6465,0.653,0.6539,0.6604,0.6623,0.6654,0.6699,0.6695,0.6737,0.675,0.6794,0.6804,0.6868,0.6881,0.6889,0.6891,0.6889,0.6887,0.6905,0.6899,0.6895,0.6894,0.6894,0.6893,0,0.6431,0.6447,0.652,0.6558,0.6569,0.6615,0.6647,0.6687,0.6702,0.6758,0.6772,0.6795,0.6846,0.6862,0.6924,0.6931,0.7005,0.7003,0.6992,0.6992,0.7034,0.7029,0.717,0.7188,0.7076,0.7077,0.7078,0,0.6494,0.6539,0.6581,0.661,0.6632,0.6679,0.6709,0.672,0.6751,0.6796,0.683,0.6881,0.6922,0.7004,0.7026,0.7073,0.7071,0.7117,0.7078,0.7074,0.707,0.7066,0.707,0.7124,0.7125,0.7126,0.7127,0,0.6602,0.6607,0.6651,0.6697,0.6733,0.677,0.6805,0.6829,0.6844,0.688,0.6932,0.6963,0.7026,0.7075,0.7123,0.7144,0.7138,0.7139,0.7151,0.7149,0.7141,0.7144,0.7011,0.7136,0.7135,0.7134,0.7134,0.7133,0.6678,0.6716,0.6751,0.6799,0.6827,0.686,0.6898,0.6917,0.696,0.7011,0.7015,0.707,0.7105,0.7168,0.7192,0.7235,0.7222,0.724,0.7244,0.7248,0.7251,0.7135,0.7244,0.7244,0.7243,0.7243,0.7243,0,0.6785,0.6806,0.685,0.6899,0.6937,0.6927,0.6965,0.6997,0.7046,0.7079,0.7119,0.7178,0.7225,0.7251,0.7298,0.7328,0.7326,0.7339,0.7337,0.7342,0.7261,0.7245,0.734,0.734,0.734,0.734,0.734,0.734,0.6845,0.6909,0.6918,0.6995,0.7016,0.707,0.7093,0.7122,0.7149,0.7214,0.7253,0.7269,0.7299,0.7348,0.7391,0.7397,0.7414,0.7429,0.7433,0.7357,0.7348,0.7338,0.7323,0.7433,0.7433,0.751,0.7511,0.7512]}]]